Time,TemperatureF,DewpointF,PressureIn,WindDirection,WindDirectionDegrees,WindSpeedMPH,WindSpeedGustMPH,Humidity,HourlyPrecipIn,Conditions,Clouds,dailyrainin,SoftwareType,DateUTC
2013-02-17 00:22:00,38.0,-99.9,-100.00,East,86,1.0,1.0,-999,-99.99,,,-99.99,,2013-02-17 07:22:00,
2013-02-17 01:22:00,36.0,-99.9,-100.00,NNW,345,1.0,1.0,-999,-99.99,,,-99.99,,2013-02-17 08:22:00,
2013-02-17 02:22:00,35.0,-99.9,-100.00,NW,318,0.0,2.0,-999,-99.99,,,-99.99,,2013-02-17 09:22:00,
2013-02-17 03:52:00,31.0,-99.9,-100.00,North,10,1.0,1.0,-999,-99.99,,,-99.99,,2013-02-17 10:52:00,
2013-02-17 04:22:00,32.0,-99.9,-100.00,NE,50,0.0,0.0,-999,-99.99,,,-99.99,,2013-02-17 11:22:00,
2013-02-17 05:32:00,28.0,-99.9,-100.00,NNW,336,0.0,1.0,-999,-99.99,,,-99.99,,2013-02-17 12:32:00,
2013-02-17 06:02:00,30.0,-99.9,-100.00,WSW,248,0.0,0.0,-999,-99.99,,,-99.99,,2013-02-17 13:02:00,
2013-02-17 08:02:00,28.0,-99.9,-100.00,WSW,245,1.0,2.0,-999,-99.99,,,-99.99,,2013-02-17 15:02:00,
2013-02-17 08:52:00,53.0,-99.9,-100.00,WNW,292,1.0,1.0,-999,-99.99,,,-99.99,,2013-02-17 15:52:00,
2013-02-17 11:52:00,78.0,-99.9,-100.00,East,82,1.0,3.0,-999,-99.99,,,-99.99,,2013-02-17 18:52:00,
2013-02-17 13:32:00,77.0,-99.9,-100.00,NNE,20,3.0,3.0,-999,-99.99,,,-99.99,,2013-02-17 20:32:00,
2013-02-17 15:01:00,75.0,-99.9,-100.00,WNW,298,1.0,3.0,-999,-99.99,,,-99.99,,2013-02-17 22:01:00,
2013-02-17 15:22:00,76.0,-99.9,-100.00,NW,304,0.0,5.0,-999,-99.99,,,-99.99,,2013-02-17 22:22:00,
2013-02-17 15:32:00,74.0,-99.9,-100.00,NNW,335,2.0,3.0,-999,-99.99,,,-99.99,,2013-02-17 22:32:00,
2013-02-17 15:42:00,74.0,-99.9,-100.00,NNW,335,2.0,3.0,-999,-99.99,,,-99.99,,2013-02-17 22:42:00,
2013-02-17 15:52:00,74.0,-99.9,-100.00,NNW,327,1.0,3.0,-999,-99.99,,,-99.99,,2013-02-17 22:52:00,
2013-02-17 16:02:00,74.0,-99.9,-100.00,NNW,327,1.0,3.0,-999,-99.99,,,-99.99,,2013-02-17 23:02:00,
2013-02-17 17:02:00,68.0,-99.9,-100.00,NNW,337,1.0,3.0,-999,-99.99,,,-99.99,,2013-02-18 00:02:00,
2013-02-17 17:12:00,68.0,-99.9,-100.00,NNW,337,1.0,3.0,-999,-99.99,,,-99.99,,2013-02-18 00:12:00,
2013-02-17 17:32:00,67.0,-99.9,-100.00,WSW,251,1.0,2.0,-999,-99.99,,,-99.99,,2013-02-18 00:32:00,
2013-02-17 17:42:00,67.0,-99.9,-100.00,WSW,251,1.0,2.0,-999,-99.99,,,-99.99,,2013-02-18 00:42:00,
2013-02-17 18:40:00,57.0,-99.9,-100.00,NNE,20,0.0,2.0,-999,-99.99,,,-99.99,,2013-02-18 01:40:00,
2013-02-17 19:22:00,57.0,-99.9,-100.00,NNE,20,0.0,2.0,-999,-99.99,,,-99.99,,2013-02-18 02:22:00,
2013-02-17 19:32:00,57.0,-99.9,-100.00,NNE,20,0.0,2.0,-999,-99.99,,,-99.99,,2013-02-18 02:32:00,
2013-02-17 20:02:00,54.0,-99.9,-100.00,ENE,62,1.0,1.0,-999,-99.99,,,-99.99,,2013-02-18 03:02:00,
2013-02-17 20:40:00,53.0,-99.9,-100.00,North,355,0.0,1.0,-999,-99.99,,,-99.99,,2013-02-18 03:40:00,
2013-02-17 21:01:00,52.0,-99.9,-100.00,NNE,26,0.0,1.0,-999,-99.99,,,-99.99,,2013-02-18 04:01:00,
2013-02-17 21:22:00,53.0,-99.9,-100.00,North,355,0.0,1.0,-999,-99.99,,,-99.99,,2013-02-18 04:22:00,
2013-02-17 21:32:00,53.0,-99.9,-100.00,North,355,0.0,1.0,-999,-99.99,,,-99.99,,2013-02-18 04:32:00,
2013-02-17 22:32:00,52.0,-99.9,-100.00,East,89,1.0,3.0,-999,-99.99,,,-99.99,,2013-02-18 05:32:00,
2013-02-17 22:42:00,52.0,-99.9,-100.00,East,89,1.0,3.0,-999,-99.99,,,-99.99,,2013-02-18 05:42:00,
2013-02-17 23:02:00,47.0,-99.9,-100.00,ESE,122,0.0,1.0,-999,-99.99,,,-99.99,,2013-02-18 06:02:00,
2013-02-17 23:42:00,47.0,-99.9,-100.00,NE,36,1.0,1.0,-999,-99.99,,,-99.99,,2013-02-18 06:42:00,
2013-02-17 23:52:00,47.0,-99.9,-100.00,NE,36,1.0,1.0,-999,-99.99,,,-99.99,,2013-02-18 06:52:00,